Cut Bank, MT

11:33 AM MST on November 13, 2019 (GMT -0700)
Cut Bank Municipal

Weather History for KCTB - September, 2019

Change the Weather History Date:

Saturday, September 28, 2019

  Actual Average Record
Temperature  
Mean Temperature 28 °F 50 °F  
Max Temperature 30 °F 63 °F 87 °F (1967)
Min Temperature 24 °F 36 °F 20 °F (1984)
Degree Days  
Heating Degree Days 37 16  
Month to date heating degree days 267 313  
Since 1 July heating degree days 440 507  
Cooling Degree Days 0 0  
Month to date cooling degree days 2 6  
Year to date cooling degree days 106 159  
Moisture  
Dew Point 23 °F    
Average Humidity 87    
Maximum Humidity 93    
Minimum Humidity 77    
Precipitation  
Precipitation 0.12 in 0.03 in 0.40 in (1925)
Month to date precipitation 1.28 1.16  
Year to date precipitation 10.11 9.82  
Snow  
Snow - - - ()
Snow Depth 1.00 in    
Sea Level Pressure  
Sea Level Pressure 30.13 in    
Wind  
Wind Speed 21 mph ()    
Max Wind Speed 30 mph    
Max Gust Speed 36 mph    
Visibility 1.7 miles    
Events Fog , Snow    
T = Trace of Precipitation, MM = Missing Value Source: Averaged Metar Reports

Daily Weather History Graph

Daily Weather History Graph

Search for Another Location

Airport or City:

Astronomy

Sep. 28, 2019 Rise Set
Actual Time 7:24 AM MDT 7:15 PM MDT
Civil Twilight 6:53 AM MDT 7:46 PM MDT
Nautical Twilight 6:16 AM MDT 8:22 PM MDT
Astronomical Twilight 5:38 AM MDT 9:00 PM MDT
Moon 6:59 AM MDT (9/28) 7:45 PM MDT (9/28)
Length of Visible Light 12h 53m
Length of Day
11h 50m
Waning Crescent, 0% of the Moon is Illuminated
Sep 28
Waning Crescent
Sep 28
New
Oct 5
First Quarter
Oct 13
Full
Oct 21
Last Quarter

Hourly Weather History & Observations

Time (MDT) Temp. Windchill Dew Point Humidity Pressure Visibility Wind Dir Wind Speed Gust Speed Precip Events Conditions
12:24 AM 32.0 °F 19.8 °F 30.0 °F 92% 30.02 in 2.5 mi NE 20.7 mph - 0.01 in Snow Light Snow
12:56 AM 30.9 °F 17.5 °F 28.9 °F 92% 30.07 in 2.5 mi NNE 24.2 mph - 0.01 in Snow Light Snow
1:02 AM 30.9 °F 17.5 °F 28.0 °F 89% 30.02 in 3.0 mi NNE 24.2 mph - 0.00 in Snow Light Snow
1:21 AM 30.0 °F 16.9 °F 28.0 °F 92% 30.03 in 2.5 mi NNE 21.9 mph 31.1 mph 0.00 in Snow Light Snow
1:56 AM 30.0 °F 16.6 °F 28.0 °F 92% 30.09 in 2.0 mi NNE 23.0 mph - 0.00 in Snow Light Snow
2:05 AM 30.0 °F 16.3 °F 27.0 °F 88% 30.03 in 1.8 mi NNE 24.2 mph 31.1 mph 0.00 in Snow Light Snow
2:56 AM 28.9 °F 15.8 °F 27.0 °F 92% 30.10 in 1.0 mi NNE 20.7 mph 31.1 mph 0.00 in Snow Light Snow
3:27 AM 28.9 °F 14.8 °F 27.0 °F 92% 30.05 in 0.8 mi NNE 24.2 mph 28.8 mph 0.01 in Snow Light Snow
3:51 AM 28.4 °F 14.1 °F 26.6 °F 93% 30.06 in 1.0 mi NNE 24.2 mph - 0.01 in Snow Light Snow
3:56 AM 28.9 °F 15.1 °F 27.0 °F 92% 30.12 in 1.0 mi NNE 23.0 mph - 0.02 in Snow Light Snow
4:56 AM 28.0 °F 13.0 °F 26.1 °F 92% 30.14 in 1.0 mi NNE 26.5 mph 31.1 mph 0.01 in Snow Light Snow
5:28 AM 28.0 °F 14.3 °F 26.1 °F 92% 30.08 in 0.8 mi NNE 21.9 mph 31.1 mph 0.00 in Snow Light Snow
5:56 AM 28.0 °F 13.6 °F 25.0 °F 88% 30.16 in 0.8 mi NNE 24.2 mph - 0.01 in Snow Light Snow
6:56 AM 27.0 °F 11.9 °F 24.1 °F 89% 30.17 in 0.8 mi North 25.3 mph - 0.01 in Snow Light Snow
7:56 AM 26.1 °F 11.6 °F 24.1 °F 92% 30.20 in 0.5 mi North 21.9 mph - 0.01 in Fog , Snow Snow
8:51 AM 26.6 °F 12.0 °F 24.8 °F 93% 30.13 in 1.2 mi NNE 23.0 mph - 0.00 in Snow Light Snow
8:56 AM 26.1 °F 12.0 °F 24.1 °F 92% 30.22 in 1.2 mi NNE 20.7 mph 28.8 mph 0.00 in Snow Light Snow
9:07 AM 26.1 °F 12.0 °F 24.1 °F 92% 30.13 in 1.5 mi NNE 20.7 mph - 0.01 in Snow Light Snow
9:38 AM 27.0 °F 12.5 °F 24.1 °F 89% 30.14 in 0.8 mi NNE 23.0 mph - 0.01 in Snow Light Snow
9:56 AM 27.0 °F 12.5 °F 24.1 °F 89% 30.22 in 0.5 mi NNE 23.0 mph - 0.01 in Fog , Snow Snow
10:09 AM 27.0 °F 12.2 °F 24.1 °F 89% 30.14 in 0.2 mi NNE 24.2 mph - 0.00 in Fog , Snow Heavy Snow
10:31 AM 27.0 °F 12.8 °F 24.1 °F 89% 30.14 in 0.5 mi NNE 21.9 mph - 0.01 in Fog , Snow Snow
10:56 AM 27.0 °F 12.8 °F 24.1 °F 89% 30.24 in 0.8 mi NNE 21.9 mph - 0.01 in Snow Light Snow
11:13 AM 27.0 °F 13.5 °F 24.1 °F 89% 30.15 in 0.5 mi NNE 19.6 mph - 0.00 in Fog , Snow Snow
11:41 AM 27.0 °F 11.0 °F 23.0 °F 85% 30.14 in 0.8 mi NNE 28.8 mph 35.7 mph 0.00 in Snow Light Snow
11:45 AM 27.0 °F 10.8 °F 23.0 °F 85% 30.14 in 1.0 mi NNE 29.9 mph 35.7 mph 0.00 in Snow Light Snow
11:56 AM 27.0 °F 11.3 °F 23.0 °F 85% 30.25 in 1.2 mi NNE 27.6 mph 32.2 mph 0.00 in Snow Light Snow
12:22 PM 27.0 °F 11.9 °F 23.0 °F 85% 30.15 in 1.2 mi NNE 25.3 mph 32.2 mph 0.00 in Snow Light Snow
12:54 PM 26.6 °F 12.4 °F 23.0 °F 86% 30.14 in 1.8 mi NNE 21.9 mph - 0.00 in Snow Light Snow
12:56 PM 27.0 °F 12.2 °F 23.0 °F 85% 30.25 in 1.8 mi NNE 24.2 mph - 0.00 in Snow Light Snow
1:02 PM 27.0 °F 12.2 °F 23.0 °F 85% 30.14 in 2.0 mi NNE 24.2 mph - 0.00 in Snow Light Snow
1:37 PM 28.0 °F 14.6 °F 23.0 °F 81% 30.12 in 0.8 mi NNE 20.7 mph - 0.00 in Snow Light Snow
1:51 PM 28.4 °F 14.4 °F 24.8 °F 86% 30.12 in 1.0 mi NNE 23.0 mph 28.8 mph 0.00 in Snow Light Snow
1:56 PM 27.0 °F 13.2 °F 23.0 °F 85% 30.23 in 1.0 mi NE 20.7 mph - 0.00 in Snow Light Snow
2:14 PM 27.0 °F 11.9 °F 21.9 °F 81% 30.11 in 1.2 mi NNE 25.3 mph 29.9 mph 0.00 in Snow Light Snow
2:23 PM 27.0 °F 11.9 °F 21.9 °F 81% 30.11 in 2.0 mi NNE 25.3 mph - 0.00 in Snow Light Snow
2:37 PM 27.0 °F 12.2 °F 21.0 °F 78% 30.11 in 2.5 mi NE 24.2 mph 33.4 mph 0.00 in Snow Light Snow
2:56 PM 27.0 °F 12.8 °F 21.9 °F 81% 30.23 in 2.5 mi NNE 21.9 mph - 0.00 in Snow Light Snow
3:20 PM 28.0 °F 14.9 °F 21.9 °F 78% 30.11 in 1.8 mi NNE 19.6 mph - 0.00 in Snow Light Snow
3:30 PM 27.0 °F 13.2 °F 21.9 °F 81% 30.11 in 1.8 mi NNE 20.7 mph - 0.00 in Snow Light Snow
3:56 PM 27.0 °F 12.5 °F 21.9 °F 81% 30.22 in 1.2 mi NNE 23.0 mph - 0.00 in Snow Light Snow
4:06 PM 27.0 °F 12.8 °F 23.0 °F 85% 30.10 in 1.0 mi NNE 21.9 mph - 0.01 in Snow Light Snow
4:15 PM 27.0 °F 12.8 °F 23.0 °F 85% 30.09 in 1.5 mi NNE 21.9 mph - 0.01 in Snow Light Snow
4:26 PM 27.0 °F 12.5 °F 23.0 °F 85% 30.10 in 2.5 mi NNE 23.0 mph 32.2 mph 0.01 in Snow Light Snow
4:40 PM 27.0 °F 12.5 °F 21.9 °F 81% 30.10 in 3.0 mi NNE 23.0 mph - 0.01 in Snow Light Snow
4:46 PM 27.0 °F 11.9 °F 21.9 °F 81% 30.09 in 1.8 mi NNE 25.3 mph - 0.01 in Snow Light Snow
4:56 PM 27.0 °F 13.5 °F 21.9 °F 81% 30.20 in 1.0 mi NNE 19.6 mph - 0.01 in Snow Light Snow
5:06 PM 26.1 °F 11.3 °F 21.9 °F 84% 30.09 in 0.8 mi NNE 23.0 mph - 0.00 in Snow Light Snow
5:17 PM 26.1 °F 11.6 °F 21.9 °F 84% 30.10 in 0.8 mi NNE 21.9 mph - 0.00 in Snow Light Snow
5:29 PM 27.0 °F 13.5 °F 21.9 °F 81% 30.10 in 1.2 mi NNE 19.6 mph - 0.00 in Snow Light Snow
5:36 PM 27.0 °F 13.5 °F 21.9 °F 81% 30.10 in 3.0 mi NNE 19.6 mph - 0.00 in Snow Light Snow
5:52 PM 26.6 °F 12.7 °F 21.2 °F 80% 30.11 in 2.5 mi NNE 20.7 mph - 0.00 in Snow Light Snow
5:56 PM 26.1 °F 12.7 °F 21.9 °F 84% 30.22 in 1.2 mi NNE 18.4 mph - 0.00 in Snow Light Snow
6:04 PM 26.1 °F 11.3 °F 21.9 °F 84% 30.11 in 0.8 mi NNE 23.0 mph - 0.00 in Snow Light Snow
6:16 PM 26.1 °F 12.3 °F 23.0 °F 88% 30.11 in 0.8 mi NNE 19.6 mph - 0.00 in Snow Light Snow
6:41 PM 26.1 °F 13.1 °F 23.0 °F 88% 30.11 in 0.5 mi NNE 17.3 mph - 0.00 in Fog , Snow Snow
6:56 PM 25.0 °F 11.3 °F 23.0 °F 92% 30.23 in 0.5 mi NNE 18.4 mph - 0.00 in Fog , Snow Snow
7:20 PM 25.0 °F 11.7 °F 23.0 °F 92% 30.11 in 0.5 mi NNE 17.3 mph - 0.01 in Fog , Snow Snow
7:34 PM 25.0 °F 11.3 °F 23.0 °F 92% 30.11 in 1.2 mi NNE 18.4 mph - 0.01 in Snow Light Snow
7:46 PM 25.0 °F 11.3 °F 23.0 °F 92% 30.11 in 1.8 mi NNE 18.4 mph - 0.01 in Snow Light Snow
7:53 PM 24.8 °F 11.1 °F 23.0 °F 93% 30.10 in 2.0 mi North 18.4 mph - 0.01 in Snow Light Snow
7:56 PM 25.0 °F 11.3 °F 21.9 °F 88% 30.23 in 2.0 mi North 18.4 mph - 0.01 in Snow Light Snow
8:17 PM 25.0 °F 10.9 °F 21.9 °F 88% 30.10 in 2.5 mi NNE 19.6 mph - 0.00 in Snow Light Snow
8:32 PM 25.0 °F 11.7 °F 21.9 °F 88% 30.11 in 3.0 mi NNE 17.3 mph - 0.00 in Snow Light Snow
8:56 PM 26.1 °F 13.1 °F 21.9 °F 84% 30.23 in 5.0 mi NNE 17.3 mph - 0.00 in Snow Light Snow
9:04 PM 26.1 °F 11.6 °F 21.9 °F 84% 30.11 in 2.5 mi NNE 21.9 mph 29.9 mph 0.00 in Snow Light Snow
9:13 PM 25.0 °F 10.9 °F 21.9 °F 88% 30.11 in 1.8 mi NNE 19.6 mph - 0.00 in Snow Light Snow
9:21 PM 25.0 °F 10.6 °F 21.9 °F 88% 30.11 in 2.5 mi NNE 20.7 mph - 0.00 in Snow Light Snow
9:37 PM 25.0 °F 10.6 °F 21.9 °F 88% 30.10 in 1.8 mi NNE 20.7 mph - 0.01 in Snow Light Snow
9:53 PM 24.8 °F 10.0 °F 21.2 °F 86% 30.11 in 2.0 mi NNE 21.9 mph - 0.01 in Snow Light Snow
9:56 PM 25.0 °F 9.5 °F 21.9 °F 88% 30.23 in 2.0 mi NNE 24.2 mph - 0.01 in Snow Light Snow
10:09 PM 25.0 °F 10.6 °F 21.9 °F 88% 30.10 in 4.0 mi NNE 20.7 mph - 0.00 in Snow Light Snow
10:24 PM 25.0 °F 10.9 °F 21.9 °F 88% 30.09 in 6.0 mi NNE 19.6 mph - 0.00 in Snow Light Snow
10:56 PM 25.0 °F 10.6 °F 21.9 °F 88% 30.20 in 4.0 mi NNE 20.7 mph - 0.00 in Snow Light Snow
11:08 PM 25.0 °F 10.6 °F 21.9 °F 88% 30.08 in 2.5 mi NNE 20.7 mph 28.8 mph 0.00 in Snow Light Snow
11:37 PM 25.0 °F 10.9 °F 21.9 °F 88% 30.08 in 2.0 mi North 19.6 mph - 0.00 in Snow Light Snow
11:41 PM 25.0 °F 10.9 °F 21.9 °F 88% 30.08 in 1.5 mi North 19.6 mph - 0.00 in Snow Light Snow
11:48 PM 25.0 °F 10.9 °F 21.9 °F 88% 30.07 in 1.2 mi North 19.6 mph - 0.00 in Snow Light Snow
11:56 PM 25.0 °F 10.6 °F 21.9 °F 88% 30.19 in 1.2 mi NNE 20.7 mph - 0.00 in Snow Light Snow